Zurück zum Katalog

TIANHUI 4A

AktivWissenschaftPO
NORAD 50572·PAYLOAD·🇨🇳 China

Gestartet Dec 29, 2021 von Jiuquan Satellite Launch Center

Loading…

Nächste Überflüge (nächste 24 Stunden)

TLE

AktuellSource: Space-Track

Epoche: Sep 14, 2026, 22:40 UTC

1 50572U 21134A   26257.94492060  .00005443  00000-0  10491-3 0  9990
2 50572  88.9684 309.9432 0010960  77.3001 282.9484 15.47564929263749

Verfolge TIANHUI 4A in Echtzeit mit AllMySat

Download on the App Store